STARLINK-35983

Last updated on Fri Dec 19 2025 00:02:08 GMT+0000 (Coordinated Universal Time)

1 66902U 25283AA 25352.58336806 -.01587304 00000+0 -10693-1 0 9998 2 66902 53.1548 44.3321 0001012 71.1353 102.5918 15.77573195 3360
UTC large
Height (km)
Speed (km/s)
/
Latitude / Longitude
Inclination (degrees)
Orbital Period (minutes)
Azimuth
Elevation
Range (km)
Doppler Factor

Next 0 passes for location: London (51.5072 / 0.1276)

Sorry there are no passes over London.